COSMOS 1375 DEB

Satellite information

Favourite Embed

Satellite Type and Status

DEBRISIN ORBIT

Key statistics

Satellite COSMOS 1375 DEB at a glance.

Uptime

15800

Days in orbit

Revolutions

≈ 13.8

Per day

Orbit

LEO

Low Earth Orbit

Inclination

65.8

Latest

Satellite identification and parameters

Extended collection of information and parameters for COSMOS 1375 DEB.

Object identification

Identified? True

Debris? True

Object name: COSMOS 1375 DEB

International designator: 1982-055AB

Object number (NORAD): 16387

Object ID (CCSDS): 16387

Country: COMMONWEALTH OF INDEPENDENT STATES (CIS)

Current information (Y/N): Y

RCS size: MEDIUM

Orbital parameters

Period: 103.977 minutes

Inclination: 65.8367 deg

SMA: 7324.608 km

Apoapsis: 988.109 km

Periapsis: 904.837 km

RAAN: 152.21 deg

Eccentricy: 0.00568444

Argument of periapsis: 212.122 deg

Mean anomaly: 223.6923 deg

Mean motion: 13.84924738 rev/day

Mean motion (dot): -0.00000028 rev/day2

B* drag term: 0.000048298196 1/REarth

Two-line elements (TLE)

Creation date: Sept. 8, 2025, 3:16 a.m.

Reference frame: TEME

Reference center: EARTH

Epoch: Sept. 7, 2025, 9:38 p.m. UTC

TLE line 0: 0 COSMOS 1375 DEB

TLE line 1: 1 16387U 82055AB 25250.90207146 -.00000028 00000-0 48298-4 0 9994

TLE line 2: 2 16387 65.8367 152.2100 0056844 212.1220 223.6923 13.84924738 15912

Live tracking on map

Real-time ground track for satellite COSMOS 1375 DEB.

In-orbit conjunctions

A list of the most updated potential collisions computed for object COSMOS 1375 DEB.

Target Orbit TCA Probability of collision Miss distance Type
CZ-6A DEB LEO 2024-12-12 15:36:16 0.0006915424 400.0 (m) DEBRIS

Associated space launch

ASAT target satellite

COSMOS 1375 DEB was lifted into orbit during the mission ‘Kosmos-3M | DS-P1-M 16’, on board a Kosmos-3M space rocket.

The launch took place on June 6, 1982, 5:10 p.m. from 132/2.

For more information about the launch, click the button.

Launch to space Kosmos-3M | DS-P1-M 16
Kosmos-3M | DS-P1-M 16

Agency: N/A

Status: Launch Successful

Launch date: June 6, 1982, 5:10 p.m. UTC

Rocket: Kosmos-3M

Launch pad: 132/2

Location: Plesetsk Cosmodrome, Russian Federation

...

Latest news about this satellite

There are no fresh news available about this satellite. Check back as we update our databases every day.


Newsletter sign-up

Weekly statistics, charts and insights to help you stay on top of the space industry.